Satellite: GO-32
Catalog number: 25397
Epoch time:      09001.65712251
Element set:     786
Inclination:      098.3432 deg
RA of node:       032.7884 deg
Eccentricity:    0.0001787
Arg of perigee:   048.3114 deg
Mean anomaly:     311.8207 deg
Mean motion:   14.23152891 rev/day
Decay rate:       -9.6e-07 rev/day^2
Epoch rev:           54444
Checksum:              302

Satellite: NO-44
Catalog number: 26931
Epoch time:      09001.84271282
Element set:      64
Inclination:      067.0511 deg
RA of node:       132.8861 deg
Eccentricity:    0.0006026
Arg of perigee:   257.9820 deg
Mean anomaly:     102.0613 deg
Mean motion:   14.29543691 rev/day
Decay rate:       -2.3e-07 rev/day^2
Epoch rev:           37880
Checksum:              279

Satellite: SO-50
Catalog number: 27607
Epoch time:      09001.67361646
Element set:     779
Inclination:      064.5554 deg
RA of node:       170.8162 deg
Eccentricity:    0.0082133
Arg of perigee:   240.7346 deg
Mean anomaly:     118.5516 deg
Mean motion:   14.71404475 rev/day
Decay rate:      -1.00e-06 rev/day^2
Epoch rev:           32417
Checksum:              289

Satellite: CO-55
Catalog number: 27844
Epoch time:      09001.77481061
Element set:     478
Inclination:      098.7151 deg
RA of node:       013.2801 deg
Eccentricity:    0.0009059
Arg of perigee:   263.9257 deg
Mean anomaly:     096.0898 deg
Mean motion:   14.20615354 rev/day
Decay rate:        4.8e-07 rev/day^2
Epoch rev:           28563
Checksum:              319

Satellite: CO-57
Catalog number: 27848
Epoch time:      09001.58845102
Element set:     426
Inclination:      098.7156 deg
RA of node:       012.1632 deg
Eccentricity:    0.0009156
Arg of perigee:   269.2475 deg
Mean anomaly:     090.7639 deg
Mean motion:   14.20420756 rev/day
Decay rate:        2.9e-07 rev/day^2
Epoch rev:           28557
Checksum:              317

Satellite: AO-51
Catalog number: 28375
Epoch time:      09001.62097809
Element set:     281
Inclination:      098.0574 deg
RA of node:       020.8934 deg
Eccentricity:    0.0083220
Arg of perigee:   271.3450 deg
Mean anomaly:     087.8212 deg
Mean motion:   14.40629211 rev/day
Decay rate:        3.0e-08 rev/day^2
Epoch rev:           23697
Checksum:              289

Satellite: CO-56
Catalog number: 28941
Epoch time:      09001.85067633
Element set:     686
Inclination:      098.1255 deg
RA of node:       147.6379 deg
Eccentricity:    0.0129469
Arg of perigee:   033.9625 deg
Mean anomaly:     326.9821 deg
Mean motion:   15.68625785 rev/day
Decay rate:     3.2755e-04 rev/day^2
Epoch rev:           16105
Checksum:              356

Satellite: CP3
Catalog number: 31128
Epoch time:      09001.11373423
Element set:     520
Inclination:      098.0158 deg
RA of node:       061.9144 deg
Eccentricity:    0.0104127
Arg of perigee:   082.8555 deg
Mean anomaly:     278.4476 deg
Mean motion:   14.52005935 rev/day
Decay rate:       -4.6e-07 rev/day^2
Epoch rev:            9065
Checksum:              276

Satellite: CP4
Catalog number: 31132
Epoch time:      09001.54033438
Element set:     498
Inclination:      098.0200 deg
RA of node:       065.4776 deg
Eccentricity:    0.0086896
Arg of perigee:   072.4670 deg
Mean anomaly:     288.6006 deg
Mean motion:   14.55172535 rev/day
Decay rate:       1.63e-06 rev/day^2
Epoch rev:            9079
Checksum:              304

Satellite: CO-65
Catalog number: 32785
Epoch time:      09001.22868296
Element set:     252
Inclination:      097.9697 deg
RA of node:       066.3871 deg
Eccentricity:    0.0014379
Arg of perigee:   210.2532 deg
Mean anomaly:     149.7853 deg
Mean motion:   14.81433453 rev/day
Decay rate:       1.84e-06 rev/day^2
Epoch rev:            3672
Checksum:              329

/EX
SB KEPS @ AMSAT  $ORB09001.W
Orbital Elements  09001.WEATHER

HR AMSAT ORBITAL ELEMENTS FOR WEATHER SATELLITES
FROM WA5QGD FORT WORTH,TX January 1, 2009
Send Subscribe/unsubscribe to KEPS at 
http://www.amsat.org/mailman/listinfo/keps
BID: ORB09001.W
TO ALL RADIO AMATEURS BT

Satellite: NOAA-10
Catalog number: 16969
Epoch time:      09001.46390867
Element set:     438
Inclination:      098.7077 deg
RA of node:       028.8863 deg
Eccentricity:    0.0012022
Arg of perigee:   326.8590 deg
Mean anomaly:     033.1857 deg
Mean motion:   14.27377081 rev/day
Decay rate:        2.8e-07 rev/day^2
Epoch rev:           15972
Checksum:              325

Satellite: NOAA-11
Catalog number: 19531
Epoch time:      09001.17528022
Element set:     456
Inclination:      098.7917 deg
RA of node:       093.6861 deg
Eccentricity:    0.0010900
Arg of perigee:   222.7586 deg
Mean anomaly:     137.2752 deg
Mean motion:   14.14883642 rev/day
Decay rate:      -1.61e-06 rev/day^2
Epoch rev:            4590
Checksum:              294

Satellite: NOAA-12
Catalog number: 21263
Epoch time:      09001.55361796
Element set:     961
Inclination:      098.7715 deg
RA of node:       009.5401 deg
Eccentricity:    0.0011542
Arg of perigee:   271.2301 deg
Mean anomaly:     088.7556 deg
Mean motion:   14.25561022 rev/day
Decay rate:        3.1e-07 rev/day^2
Epoch rev:           91665
Checksum:              279

